Time,TemperatureF,DewpointF,PressureIn,WindDirection,WindDirectionDegrees,WindSpeedMPH,WindSpeedGustMPH,Humidity,HourlyPrecipIn,Conditions,Clouds,dailyrainin,SoftwareType,DateUTC
2013-01-20 00:02:00,26.0,13.0,-100.00,NNE,30,32.0,47.0,59,-99.99,,,-99.99,,2013-01-20 06:02:00,
2013-01-20 00:12:00,25.0,12.0,-100.00,NNE,30,34.0,51.0,59,-99.99,,,-99.99,,2013-01-20 06:12:00,
2013-01-20 00:22:00,24.0,11.0,-100.00,NE,35,33.0,49.0,58,-99.99,,,-99.99,,2013-01-20 06:22:00,
2013-01-20 00:33:00,23.0,11.0,-100.00,NNE,30,29.0,47.0,58,-99.99,,,-99.99,,2013-01-20 06:33:00,
2013-01-20 00:42:00,23.0,11.0,-100.00,NNE,30,29.0,47.0,58,-99.99,,,-99.99,,2013-01-20 06:42:00,
2013-01-20 00:53:00,22.0,10.0,-100.00,NNE,30,31.0,42.0,58,-99.99,,,-99.99,,2013-01-20 06:53:00,
2013-01-20 01:02:00,22.0,10.0,-100.00,NNE,30,31.0,42.0,58,-99.99,,,-99.99,,2013-01-20 07:02:00,
2013-01-20 01:12:00,22.0,10.0,-100.00,NNE,30,31.0,39.0,61,-99.99,,,-99.99,,2013-01-20 07:12:00,
2013-01-20 01:22:00,21.0,10.0,-100.00,NNE,25,29.0,39.0,62,-99.99,,,-99.99,,2013-01-20 07:22:00,
2013-01-20 01:32:00,20.0,9.0,-100.00,NNE,20,28.0,37.0,62,-99.99,,,-99.99,,2013-01-20 07:32:00,
2013-01-20 01:42:00,20.0,9.0,-100.00,NNE,20,28.0,37.0,62,-99.99,,,-99.99,,2013-01-20 07:42:00,
2013-01-20 01:52:00,19.0,9.0,-100.00,NNE,25,31.0,37.0,65,-99.99,,,-99.99,,2013-01-20 07:52:00,
2013-01-20 02:02:00,19.0,9.0,-100.00,NNE,25,31.0,37.0,65,-99.99,,,-99.99,,2013-01-20 08:02:00,
2013-01-20 02:12:00,19.0,9.0,-100.00,NNE,30,32.0,37.0,65,-99.99,,,-99.99,,2013-01-20 08:12:00,
2013-01-20 02:22:00,18.0,9.0,-100.00,NNE,30,24.0,36.0,66,-99.99,,,-99.99,,2013-01-20 08:22:00,
2013-01-20 02:30:00,17.0,9.0,-100.00,NNE,25,21.0,30.0,69,-99.99,,,-99.99,,2013-01-20 08:30:00,
2013-01-20 02:32:00,18.0,9.0,-100.00,NNE,30,24.0,36.0,66,-99.99,,,-99.99,,2013-01-20 08:32:00,
2013-01-20 02:42:00,18.0,9.0,-100.00,NNE,25,20.0,33.0,67,-99.99,,,-99.99,,2013-01-20 08:42:00,
2013-01-20 02:53:00,17.0,9.0,-100.00,North,10,18.0,29.0,69,-99.99,,,-99.99,,2013-01-20 08:53:00,
2013-01-20 03:02:00,17.0,9.0,-100.00,North,10,18.0,29.0,69,-99.99,,,-99.99,,2013-01-20 09:02:00,
2013-01-20 03:12:00,17.0,9.0,-100.00,NNE,25,21.0,30.0,69,-99.99,,,-99.99,,2013-01-20 09:12:00,
2013-01-20 03:22:00,17.0,9.0,-100.00,NNE,25,21.0,30.0,69,-99.99,,,-99.99,,2013-01-20 09:22:00,
2013-01-20 04:12:00,14.0,5.0,-100.00,North,10,26.0,34.0,65,-99.99,,,-99.99,,2013-01-20 10:12:00,
2013-01-20 04:22:00,14.0,4.0,-100.00,North,10,23.0,30.0,66,-99.99,,,-99.99,,2013-01-20 10:22:00,
2013-01-20 04:32:00,14.0,4.0,-100.00,North,10,23.0,30.0,66,-99.99,,,-99.99,,2013-01-20 10:32:00,
2013-01-20 04:42:00,13.0,4.0,-100.00,North,10,24.0,32.0,66,-99.99,,,-99.99,,2013-01-20 10:42:00,
2013-01-20 04:52:00,13.0,4.0,-100.00,NNE,15,19.0,29.0,67,-99.99,,,-99.99,,2013-01-20 10:52:00,
2013-01-20 05:02:00,13.0,4.0,-100.00,NNE,15,19.0,29.0,67,-99.99,,,-99.99,,2013-01-20 11:02:00,
2013-01-20 05:12:00,13.0,4.0,-100.00,NNE,15,24.0,30.0,67,-99.99,,,-99.99,,2013-01-20 11:12:00,
2013-01-20 05:22:00,13.0,4.0,-100.00,NNE,15,19.0,32.0,67,-99.99,,,-99.99,,2013-01-20 11:22:00,
2013-01-20 05:33:00,12.0,4.0,-100.00,NNE,15,21.0,29.0,68,-99.99,,,-99.99,,2013-01-20 11:33:00,
2013-01-20 05:42:00,12.0,4.0,-100.00,NNE,15,21.0,29.0,68,-99.99,,,-99.99,,2013-01-20 11:42:00,
2013-01-20 05:53:00,12.0,4.0,-100.00,NNE,20,15.0,26.0,68,-99.99,,,-99.99,,2013-01-20 11:53:00,
2013-01-20 06:03:00,12.0,4.0,-100.00,NNE,20,15.0,26.0,68,-99.99,,,-99.99,,2013-01-20 12:03:00,
2013-01-20 06:12:00,12.0,4.0,-100.00,NNE,15,19.0,24.0,69,-99.99,,,-99.99,,2013-01-20 12:12:00,
2013-01-20 06:23:00,12.0,4.0,-100.00,North,10,16.0,24.0,69,-99.99,,,-99.99,,2013-01-20 12:23:00,
2013-01-20 06:33:00,12.0,4.0,-100.00,North,10,16.0,24.0,69,-99.99,,,-99.99,,2013-01-20 12:33:00,
2013-01-20 06:43:00,11.0,3.0,-100.00,North,5,16.0,26.0,69,-99.99,,,-99.99,,2013-01-20 12:43:00,
2013-01-20 06:53:00,11.0,3.0,-100.00,North,5,15.0,24.0,68,-99.99,,,-99.99,,2013-01-20 12:53:00,
2013-01-20 07:03:00,11.0,3.0,-100.00,North,5,15.0,24.0,68,-99.99,,,-99.99,,2013-01-20 13:03:00,
2013-01-20 07:12:00,11.0,3.0,-100.00,North,10,11.0,21.0,69,-99.99,,,-99.99,,2013-01-20 13:12:00,
2013-01-20 07:23:00,11.0,3.0,-100.00,North,10,17.0,25.0,69,-99.99,,,-99.99,,2013-01-20 13:23:00,
2013-01-20 07:33:00,11.0,2.0,-100.00,North,5,17.0,21.0,69,-99.99,,,-99.99,,2013-01-20 13:33:00,
2013-01-20 07:43:00,11.0,2.0,-100.00,North,5,17.0,21.0,69,-99.99,,,-99.99,,2013-01-20 13:43:00,
2013-01-20 07:53:00,11.0,2.0,-100.00,North,5,13.0,19.0,69,-99.99,,,-99.99,,2013-01-20 13:53:00,
2013-01-20 08:02:00,11.0,2.0,-100.00,North,5,13.0,19.0,69,-99.99,,,-99.99,,2013-01-20 14:02:00,
2013-01-20 08:12:00,11.0,3.0,-100.00,North,5,14.0,18.0,70,-99.99,,,-99.99,,2013-01-20 14:12:00,
2013-01-20 08:23:00,11.0,3.0,-100.00,North,5,15.0,20.0,70,-99.99,,,-99.99,,2013-01-20 14:23:00,
2013-01-20 08:33:00,11.0,3.0,-100.00,North,5,15.0,20.0,70,-99.99,,,-99.99,,2013-01-20 14:33:00,
2013-01-20 08:42:00,11.0,3.0,-100.00,North,5,16.0,21.0,69,-99.99,,,-99.99,,2013-01-20 14:42:00,
2013-01-20 08:53:00,11.0,3.0,-100.00,North,10,12.0,19.0,67,-99.99,,,-99.99,,2013-01-20 14:53:00,
2013-01-20 09:03:00,11.0,3.0,-100.00,North,10,12.0,19.0,67,-99.99,,,-99.99,,2013-01-20 15:03:00,
2013-01-20 09:12:00,13.0,4.0,-100.00,NNE,20,15.0,21.0,67,-99.99,,,-99.99,,2013-01-20 15:12:00,
2013-01-20 09:23:00,13.0,4.0,-100.00,NNE,25,13.0,19.0,66,-99.99,,,-99.99,,2013-01-20 15:23:00,
2013-01-20 09:33:00,13.0,4.0,-100.00,NNE,25,13.0,19.0,66,-99.99,,,-99.99,,2013-01-20 15:33:00,
2013-01-20 09:42:00,13.0,4.0,-100.00,NNE,20,16.0,21.0,65,-99.99,,,-99.99,,2013-01-20 15:42:00,
2013-01-20 09:53:00,13.0,3.0,-100.00,NNE,15,15.0,24.0,63,-99.99,,,-99.99,,2013-01-20 15:53:00,
2013-01-20 10:03:00,13.0,3.0,-100.00,NNE,15,15.0,24.0,63,-99.99,,,-99.99,,2013-01-20 16:03:00,
2013-01-20 10:12:00,14.0,4.0,-100.00,NNE,15,14.0,24.0,63,-99.99,,,-99.99,,2013-01-20 16:12:00,
2013-01-20 10:23:00,14.0,4.0,-100.00,NNE,15,14.0,19.0,62,-99.99,,,-99.99,,2013-01-20 16:23:00,
2013-01-20 10:33:00,14.0,4.0,-100.00,NNE,15,14.0,19.0,62,-99.99,,,-99.99,,2013-01-20 16:33:00,
2013-01-20 10:43:00,14.0,4.0,-100.00,NE,35,8.0,17.0,62,-99.99,,,-99.99,,2013-01-20 16:43:00,
2013-01-20 10:53:00,15.0,5.0,-100.00,NNE,20,12.0,16.0,62,-99.99,,,-99.99,,2013-01-20 16:53:00,
2013-01-20 11:03:00,15.0,5.0,-100.00,NNE,20,12.0,16.0,62,-99.99,,,-99.99,,2013-01-20 17:03:00,
2013-01-20 11:12:00,16.0,5.0,-100.00,NNE,25,14.0,19.0,61,-99.99,,,-99.99,,2013-01-20 17:12:00,
2013-01-20 11:22:00,17.0,6.0,-100.00,NNE,30,13.0,19.0,61,-99.99,,,-99.99,,2013-01-20 17:22:00,
2013-01-20 11:33:00,17.0,6.0,-100.00,NNE,30,13.0,19.0,61,-99.99,,,-99.99,,2013-01-20 17:33:00,
2013-01-20 11:42:00,17.0,6.0,-100.00,NNE,20,14.0,21.0,60,-99.99,,,-99.99,,2013-01-20 17:42:00,
2013-01-20 11:53:00,17.0,5.0,-100.00,NNE,15,13.0,19.0,59,-99.99,,,-99.99,,2013-01-20 17:53:00,
2013-01-20 12:03:00,17.0,5.0,-100.00,NNE,15,13.0,19.0,59,-99.99,,,-99.99,,2013-01-20 18:03:00,
2013-01-20 12:13:00,17.0,6.0,-100.00,North,10,13.0,17.0,60,-99.99,,,-99.99,,2013-01-20 18:13:00,
2013-01-20 12:23:00,18.0,6.0,-100.00,North,10,13.0,19.0,58,-99.99,,,-99.99,,2013-01-20 18:23:00,
2013-01-20 12:33:00,18.0,6.0,-100.00,North,10,13.0,19.0,58,-99.99,,,-99.99,,2013-01-20 18:33:00,
2013-01-20 12:43:00,17.0,5.0,-100.00,NNE,20,14.0,19.0,58,-99.99,,,-99.99,,2013-01-20 18:43:00,
2013-01-20 12:53:00,18.0,6.0,-100.00,NNE,15,15.0,21.0,58,-99.99,,,-99.99,,2013-01-20 18:53:00,
2013-01-20 13:02:00,18.0,6.0,-100.00,NNE,15,15.0,21.0,58,-99.99,,,-99.99,,2013-01-20 19:02:00,
2013-01-20 13:12:00,19.0,7.0,-100.00,NE,35,16.0,24.0,58,-99.99,,,-99.99,,2013-01-20 19:12:00,
2013-01-20 13:22:00,18.0,5.0,-100.00,NE,35,16.0,21.0,58,-99.99,,,-99.99,,2013-01-20 19:22:00,
2013-01-20 13:33:00,18.0,5.0,-100.00,NE,35,16.0,21.0,58,-99.99,,,-99.99,,2013-01-20 19:33:00,
2013-01-20 13:43:00,18.0,6.0,-100.00,NE,35,14.0,21.0,58,-99.99,,,-99.99,,2013-01-20 19:43:00,
2013-01-20 13:53:00,18.0,5.0,-100.00,NE,35,14.0,21.0,57,-99.99,,,-99.99,,2013-01-20 19:53:00,
2013-01-20 14:03:00,18.0,5.0,-100.00,NE,35,14.0,21.0,57,-99.99,,,-99.99,,2013-01-20 20:03:00,
2013-01-20 14:12:00,18.0,5.0,-100.00,NNE,25,11.0,20.0,58,-99.99,,,-99.99,,2013-01-20 20:12:00,
2013-01-20 14:23:00,18.0,5.0,-100.00,NNE,25,14.0,18.0,57,-99.99,,,-99.99,,2013-01-20 20:23:00,
2013-01-20 14:33:00,18.0,5.0,-100.00,NNE,25,14.0,18.0,57,-99.99,,,-99.99,,2013-01-20 20:33:00,
2013-01-20 14:42:00,18.0,5.0,-100.00,NNE,15,13.0,19.0,57,-99.99,,,-99.99,,2013-01-20 20:42:00,
2013-01-20 14:53:00,18.0,5.0,-100.00,NNE,25,14.0,21.0,57,-99.99,,,-99.99,,2013-01-20 20:53:00,
2013-01-20 15:03:00,18.0,5.0,-100.00,NNE,25,14.0,21.0,57,-99.99,,,-99.99,,2013-01-20 21:03:00,
2013-01-20 15:13:00,18.0,5.0,-100.00,NNE,15,15.0,19.0,56,-99.99,,,-99.99,,2013-01-20 21:13:00,
2013-01-20 15:23:00,18.0,5.0,-100.00,NNE,15,12.0,19.0,56,-99.99,,,-99.99,,2013-01-20 21:23:00,
2013-01-20 15:33:00,18.0,5.0,-100.00,NNE,15,12.0,19.0,56,-99.99,,,-99.99,,2013-01-20 21:33:00,
2013-01-20 15:43:00,18.0,5.0,-100.00,NNE,15,12.0,20.0,56,-99.99,,,-99.99,,2013-01-20 21:43:00,
2013-01-20 15:53:00,18.0,5.0,-100.00,NNE,15,14.0,17.0,56,-99.99,,,-99.99,,2013-01-20 21:53:00,
2013-01-20 16:03:00,18.0,5.0,-100.00,NNE,15,14.0,17.0,56,-99.99,,,-99.99,,2013-01-20 22:03:00,
2013-01-20 16:13:00,18.0,5.0,-100.00,North,10,15.0,19.0,57,-99.99,,,-99.99,,2013-01-20 22:13:00,
2013-01-20 16:23:00,17.0,5.0,-100.00,NNE,15,11.0,18.0,57,-99.99,,,-99.99,,2013-01-20 22:23:00,
2013-01-20 16:33:00,17.0,5.0,-100.00,NNE,15,11.0,18.0,57,-99.99,,,-99.99,,2013-01-20 22:33:00,
2013-01-20 16:43:00,17.0,5.0,-100.00,NNE,20,12.0,18.0,57,-99.99,,,-99.99,,2013-01-20 22:43:00,
2013-01-20 16:53:00,17.0,5.0,-100.00,NNE,15,12.0,16.0,57,-99.99,,,-99.99,,2013-01-20 22:53:00,
2013-01-20 17:03:00,17.0,5.0,-100.00,NNE,15,12.0,16.0,57,-99.99,,,-99.99,,2013-01-20 23:03:00,
2013-01-20 17:13:00,17.0,4.0,-100.00,NNE,15,12.0,18.0,57,-99.99,,,-99.99,,2013-01-20 23:13:00,
2013-01-20 17:23:00,17.0,4.0,-100.00,North,10,11.0,17.0,58,-99.99,,,-99.99,,2013-01-20 23:23:00,
2013-01-20 17:33:00,17.0,4.0,-100.00,North,10,11.0,17.0,58,-99.99,,,-99.99,,2013-01-20 23:33:00,
2013-01-20 17:43:00,16.0,4.0,-100.00,NNE,25,11.0,17.0,58,-99.99,,,-99.99,,2013-01-20 23:43:00,
2013-01-20 17:53:00,16.0,5.0,-100.00,NNE,25,9.0,16.0,59,-99.99,,,-99.99,,2013-01-20 23:53:00,
2013-01-20 18:03:00,16.0,5.0,-100.00,NNE,25,9.0,16.0,59,-99.99,,,-99.99,,2013-01-21 00:03:00,
2013-01-20 18:13:00,16.0,4.0,-100.00,NNE,25,10.0,20.0,58,-99.99,,,-99.99,,2013-01-21 00:13:00,
2013-01-20 18:23:00,16.0,4.0,-100.00,NNE,25,11.0,17.0,58,-99.99,,,-99.99,,2013-01-21 00:23:00,
2013-01-20 18:33:00,16.0,4.0,-100.00,NNE,25,11.0,17.0,58,-99.99,,,-99.99,,2013-01-21 00:33:00,
2013-01-20 18:43:00,16.0,4.0,-100.00,NNE,25,10.0,18.0,57,-99.99,,,-99.99,,2013-01-21 00:43:00,
2013-01-20 18:54:00,16.0,4.0,-100.00,NNE,30,10.0,19.0,57,-99.99,,,-99.99,,2013-01-21 00:54:00,
2013-01-20 19:03:00,16.0,4.0,-100.00,NNE,30,10.0,19.0,57,-99.99,,,-99.99,,2013-01-21 01:03:00,
2013-01-20 19:13:00,16.0,4.0,-100.00,NNE,30,12.0,18.0,58,-99.99,,,-99.99,,2013-01-21 01:13:00,
2013-01-20 19:23:00,16.0,4.0,-100.00,NNE,30,11.0,17.0,58,-99.99,,,-99.99,,2013-01-21 01:23:00,
2013-01-20 19:33:00,16.0,4.0,-100.00,NNE,30,11.0,17.0,58,-99.99,,,-99.99,,2013-01-21 01:33:00,
2013-01-20 19:43:00,16.0,5.0,-100.00,NNE,30,13.0,16.0,60,-99.99,,,-99.99,,2013-01-21 01:43:00,
2013-01-20 19:53:00,15.0,4.0,-100.00,NNE,25,14.0,19.0,60,-99.99,,,-99.99,,2013-01-21 01:53:00,
2013-01-20 20:03:00,15.0,4.0,-100.00,NNE,25,14.0,19.0,60,-99.99,,,-99.99,,2013-01-21 02:03:00,
2013-01-20 20:12:00,15.0,4.0,-100.00,NNE,30,12.0,19.0,60,-99.99,,,-99.99,,2013-01-21 02:12:00,
2013-01-20 20:23:00,15.0,4.0,-100.00,NNE,30,14.0,18.0,61,-99.99,,,-99.99,,2013-01-21 02:23:00,
2013-01-20 20:33:00,15.0,4.0,-100.00,NNE,30,14.0,18.0,61,-99.99,,,-99.99,,2013-01-21 02:33:00,
2013-01-20 20:43:00,15.0,4.0,-100.00,NNE,30,14.0,19.0,61,-99.99,,,-99.99,,2013-01-21 02:43:00,
2013-01-20 20:53:00,15.0,4.0,-100.00,NNE,30,14.0,19.0,61,-99.99,,,-99.99,,2013-01-21 02:53:00,
2013-01-20 21:03:00,15.0,4.0,-100.00,NNE,30,14.0,19.0,61,-99.99,,,-99.99,,2013-01-21 03:03:00,
2013-01-20 21:13:00,15.0,4.0,-100.00,NNE,30,14.0,19.0,61,-99.99,,,-99.99,,2013-01-21 03:13:00,
2013-01-20 21:23:00,15.0,4.0,-100.00,NNE,25,15.0,19.0,60,-99.99,,,-99.99,,2013-01-21 03:23:00,
2013-01-20 21:33:00,15.0,4.0,-100.00,NNE,30,14.0,18.0,59,-99.99,,,-99.99,,2013-01-21 03:33:00,
2013-01-20 21:43:00,15.0,4.0,-100.00,NNE,30,14.0,18.0,59,-99.99,,,-99.99,,2013-01-21 03:43:00,
2013-01-20 21:53:00,15.0,4.0,-100.00,NNE,25,14.0,19.0,60,-99.99,,,-99.99,,2013-01-21 03:53:00,
2013-01-20 22:03:00,15.0,4.0,-100.00,NNE,25,14.0,19.0,60,-99.99,,,-99.99,,2013-01-21 04:03:00,
2013-01-20 22:12:00,15.0,4.0,-100.00,NNE,20,16.0,21.0,60,-99.99,,,-99.99,,2013-01-21 04:12:00,
2013-01-20 22:23:00,15.0,3.0,-100.00,NNE,20,14.0,22.0,60,-99.99,,,-99.99,,2013-01-21 04:23:00,
2013-01-20 22:33:00,14.0,3.0,-100.00,NNE,20,11.0,19.0,61,-99.99,,,-99.99,,2013-01-21 04:33:00,
2013-01-20 22:43:00,14.0,3.0,-100.00,NNE,20,11.0,19.0,61,-99.99,,,-99.99,,2013-01-21 04:43:00,
2013-01-20 22:53:00,14.0,3.0,-100.00,NNE,25,14.0,18.0,61,-99.99,,,-99.99,,2013-01-21 04:53:00,
2013-01-20 23:03:00,14.0,3.0,-100.00,NNE,25,14.0,18.0,61,-99.99,,,-99.99,,2013-01-21 05:03:00,
2013-01-20 23:12:00,13.0,3.0,-100.00,NNE,25,12.0,19.0,63,-99.99,,,-99.99,,2013-01-21 05:12:00,
2013-01-20 23:22:00,12.0,3.0,-100.00,NNE,25,12.0,17.0,64,-99.99,,,-99.99,,2013-01-21 05:22:00,
2013-01-20 23:34:00,12.0,3.0,-100.00,NNE,25,9.0,15.0,65,-99.99,,,-99.99,,2013-01-21 05:34:00,
2013-01-20 23:42:00,12.0,3.0,-100.00,NNE,25,9.0,15.0,65,-99.99,,,-99.99,,2013-01-21 05:42:00,
2013-01-20 23:53:00,12.0,3.0,-100.00,NNE,20,16.0,20.0,66,-99.99,,,-99.99,,2013-01-21 05:53:00,